Location: B?dimalle
(17.1788°N, 80.5377°E)
Time: 18:42:01
(UTC+00:00)

Transit 2A Rocket - All Passes

Search period start: 18 February 2026 00:00
Search period end: 28 February 2026 00:00
Orbit: 582 x 901 km, 66.7° (Epoch: 18 February)

Date Brightness Start Highest point End Pass type
(mag) Time Alt. Az. Time Alt. Az. Time Alt. Az.
18 Feb - 08:34:48 10° SSE 08:39:10 23° ESE 08:43:42 10° ENE daylight
18 Feb - 10:16:04 10° SW 10:21:17 34° WNW 10:26:41 10° N daylight
18 Feb - 19:14:29 10° NE 19:16:35 13° ENE 19:18:37 10° E night (unlit)
18 Feb - 20:54:29 10° NW 20:59:02 39° WSW 21:03:15 10° S night (unlit)
19 Feb - 09:29:50 10° SSW 09:35:35 69° WNW 09:41:36 10° NNE daylight
19 Feb - 20:08:36 10° NNW 20:13:34 85° ENE 20:18:06 10° SSE night (unlit)
20 Feb - 08:44:23 10° S 08:50:02 58° ESE 08:55:56 10° NNE daylight
20 Feb - 10:29:45 10° W 10:32:40 14° WNW 10:35:37 10° NNW daylight
20 Feb - 19:23:23 10° N 19:27:56 35° ENE 19:32:06 10° SE night (unlit)
20 Feb - 21:07:49 10° W 21:09:45 12° WSW 21:11:37 10° SW night (unlit)
21 Feb - 07:59:45 10° SSE 08:04:35 28° ESE 08:09:36 10° NE daylight
21 Feb - 09:41:52 10° WSW 09:46:48 28° WNW 09:51:52 10° N daylight
21 Feb - 18:39:08 10° NNE 18:42:06 16° ENE 18:44:56 10° E night (unlit)
21 Feb - 20:20:12 10° NW 20:24:25 30° WSW 20:28:20 10° SSW night (unlit)
22 Feb - 07:16:42 10° SE 07:19:13 13° ESE 07:21:46 10° ENE daylight
22 Feb - 08:55:23 10° SW 09:01:04 56° WNW 09:06:59 10° N daylight
22 Feb - 19:34:04 10° NNW 19:38:58 75° WSW 19:43:27 10° SSE night (unlit)
23 Feb - 08:09:42 10° SSW 08:15:28 73° ESE 08:21:29 10° NNE daylight
23 Feb - 09:56:42 10° WNW 09:58:14 11° WNW 09:59:46 10° NW daylight
23 Feb - 18:48:40 10° N 18:53:23 44° ENE 18:57:42 10° SE night (unlit)
24 Feb - 07:24:48 10° S 07:29:59 35° ESE 07:35:22 10° NE daylight
24 Feb - 09:07:46 10° WSW 09:12:20 23° WNW 09:16:58 10° NNW daylight
24 Feb - 18:04:04 10° NNE 18:07:37 20° ENE 18:10:57 10° ESE night (unlit)
24 Feb - 19:46:00 10° NW 19:49:46 23° WSW 19:53:19 10° SSW night (unlit)
25 Feb - 06:41:04 10° SE 06:44:36 17° ESE 06:48:12 10° ENE daylight
25 Feb - 08:21:00 10° SW 08:26:33 45° WNW 08:32:18 10° N daylight
25 Feb - 18:59:36 10° NNW 19:04:21 57° WSW 19:08:44 10° S night (unlit)
26 Feb - 07:35:05 10° SSW 07:40:55 88° ESE 07:46:58 10° NNE daylight
26 Feb - 18:13:59 10° NNW 18:18:49 58° ENE 18:23:13 10° SSE night (unlit)
27 Feb - 06:49:56 10° S 06:55:24 43° ESE 07:01:03 10° NE daylight
27 Feb - 08:33:48 10° WSW 08:37:51 19° WNW 08:41:57 10° NNW daylight
27 Feb - 17:29:06 10° N 17:33:05 24° ENE 17:36:48 10° ESE night (unlit)
27 Feb - 19:11:57 10° WNW 19:15:06 18° WSW 19:18:06 10° SSW night (unlit)
